When you browse on this site, cookies collect data to enhance your experience and personalize the content and advertising you see.
Visit our Privacy Policy to learn more. By continuing to use the site, you agree to this use of cookies and data.
  • In Romania
  • List of Countries
  • For 7 days
  • Water Temperature
  • Satellite Maps
  • Weather Map
  • Weather Widgets
  • user-avatar
    Login

    Hourly Weather Ciudad Bolívar

    Today, 25 March, Monday

    Time Temperature Precipitation Wind Pressure Humidity
    00:00 +30°C° 0 mm 7 mps 753 mmHg 54%
    01:00 +29°C° 0 mm 6 mps 753 mmHg 59%
    02:00 +28°C° 0 mm 6 mps 753 mmHg 64%
    03:00 +27°C° 0 mm 6 mps 753 mmHg 68%
    04:00 +27°C° 0 mm 5 mps 753 mmHg 71%
    05:00 +26°C° 0 mm 5 mps 753 mmHg 74%
    06:00 +27°C° 0 mm 5 mps 753 mmHg 71%
    07:00 +28°C° 0 mm 5 mps 754 mmHg 68%
    08:00 +28°C° 0 mm 5 mps 754 mmHg 65%
    09:00 +30°C° 0 mm 5 mps 754 mmHg 59%
    10:00 +32°C° 0 mm 4 mps 754 mmHg 52%
    11:00 +34°C° 0 mm 4 mps 754 mmHg 46%
    12:00 +35°C° 0 mm 4 mps 753 mmHg 41%
    13:00 +37°C° 0 mm 4 mps 752 mmHg 36%
    14:00 +38°C° 0 mm 3 mps 751 mmHg 32%
    15:00 +39°C° 0 mm 3 mps 750 mmHg 30%
    16:00 +40°C° 0 mm 4 mps 749 mmHg 28%
    17:00 +41°C° 0 mm 4 mps 748 mmHg 26%
    18:00 +38°C° 0 mm 4 mps 749 mmHg 28%
    19:00 +37°C° 0 mm 4 mps 749 mmHg 31%
    20:00 +36°C° 0 mm 4 mps 750 mmHg 33%
    21:00 +34°C° 0 mm 5 mps 750 mmHg 38%
    22:00 +33°C° 0 mm 6 mps 751 mmHg 42%
    23:00 +30°C° 0 mm 7 mps 752 mmHg 46%

    Tomorrow, 26 March, Tuesday

    Time Temperature Precipitation Wind Pressure Humidity
    00:00 +29°C° 0 mm 7 mps 752 mmHg 52%
    01:00 +28°C° 0 mm 6 mps 752 mmHg 58%
    02:00 +27°C° 0 mm 6 mps 752 mmHg 63%
    03:00 +27°C° 0 mm 5 mps 752 mmHg 67%
    04:00 +26°C° 0 mm 5 mps 752 mmHg 71%
    05:00 +26°C° 0 mm 5 mps 752 mmHg 75%
    06:00 +27°C° 0 mm 5 mps 752 mmHg 71%
    07:00 +27°C° 0 mm 5 mps 753 mmHg 68%
    08:00 +28°C° 0 mm 5 mps 753 mmHg 64%
    09:00 +30°C° 0 mm 5 mps 753 mmHg 56%
    10:00 +33°C° 0 mm 5 mps 753 mmHg 48%
    11:00 +35°C° 0 mm 5 mps 754 mmHg 40%
    12:00 +37°C° 0 mm 4 mps 752 mmHg 36%
    13:00 +38°C° 0 mm 4 mps 751 mmHg 32%
    14:00 +40°C° 0 mm 4 mps 750 mmHg 29%
    15:00 +40°C° 0 mm 4 mps 749 mmHg 28%
    16:00 +40°C° 0 mm 4 mps 748 mmHg 27%
    17:00 +41°C° 0 mm 4 mps 748 mmHg 26%
    18:00 +38°C° 0 mm 4 mps 748 mmHg 29%
    19:00 +37°C° 0 mm 4 mps 749 mmHg 32%
    20:00 +36°C° 0 mm 5 mps 749 mmHg 35%
    21:00 +35°C° 0 mm 5 mps 750 mmHg 39%
    22:00 +33°C° 0 mm 6 mps 751 mmHg 43%
    23:00 +32°C° 0 mm 7 mps 751 mmHg 48%

    Day after tomorrow, 27 March, Wednesday

    Time Temperature Precipitation Wind Pressure Humidity
    00:00 +30°C° 0 mm 6 mps 751 mmHg 53%
    01:00 +29°C° 0 mm 6 mps 751 mmHg 58%
    02:00 +28°C° 0 mm 6 mps 751 mmHg 63%
    03:00 +27°C° 0 mm 5 mps 751 mmHg 66%
    04:00 +27°C° 0 mm 5 mps 751 mmHg 69%
    05:00 +27°C° 0 mm 4 mps 751 mmHg 72%
    06:00 +27°C° 0 mm 5 mps 752 mmHg 69%
    07:00 +28°C° 0 mm 5 mps 752 mmHg 66%
    08:00 +29°C° 0 mm 5 mps 753 mmHg 63%
    09:00 +32°C° 0 mm 5 mps 753 mmHg 56%
    10:00 +34°C° 0 mm 4 mps 753 mmHg 48%
    11:00 +36°C° 0 mm 4 mps 753 mmHg 40%
    12:00 +37°C° 0 mm 4 mps 752 mmHg 36%
    13:00 +40°C° 0 mm 4 mps 750 mmHg 32%
    14:00 +40°C° 0 mm 3 mps 749 mmHg 28%
    15:00 +41°C° 0 mm 4 mps 749 mmHg 26%
    16:00 +41°C° 0 mm 4 mps 748 mmHg 25%
    17:00 +42°C° 0 mm 4 mps 747 mmHg 23%
    18:00 +40°C° 0 mm 4 mps 748 mmHg 27%
    19:00 +39°C° 0 mm 5 mps 749 mmHg 30%
    20:00 +37°C° 0 mm 5 mps 749 mmHg 33%
    21:00 +35°C° 0 mm 6 mps 750 mmHg 40%
    22:00 +34°C° 0 mm 6 mps 751 mmHg 46%
    23:00 +32°C° 0 mm 7 mps 751 mmHg 53%

    28 March, Thursday

    Time Temperature Precipitation Wind Pressure Humidity
    00:00 +30°C° 0 mm 7 mps 751 mmHg 58%
    01:00 +29°C° 0 mm 6 mps 751 mmHg 63%
    02:00 +28°C° 0 mm 6 mps 751 mmHg 67%
    03:00 +28°C° 0 mm 6 mps 751 mmHg 69%
    04:00 +28°C° 0 mm 5 mps 751 mmHg 71%
    05:00 +27°C° 0 mm 5 mps 752 mmHg 72%
    06:00 +28°C° 0 mm 5 mps 752 mmHg 69%
    07:00 +29°C° 0 mm 5 mps 753 mmHg 66%
    08:00 +29°C° 0 mm 5 mps 754 mmHg 62%
    09:00 +32°C° 0 mm 5 mps 753 mmHg 55%
    10:00 +35°C° 0 mm 5 mps 753 mmHg 47%
    11:00 +37°C° 0 mm 5 mps 753 mmHg 39%
    12:00 +39°C° 0 mm 5 mps 752 mmHg 35%
    13:00 +40°C° 0 mm 4 mps 751 mmHg 32%
    14:00 +42°C° 0 mm 4 mps 749 mmHg 28%
    15:00 +41°C° 0 mm 4 mps 749 mmHg 29%
    16:00 +41°C° 0 mm 5 mps 748 mmHg 30%
    17:00 +41°C° 0 mm 5 mps 748 mmHg 30%
    18:00 +40°C° 0 mm 5 mps 749 mmHg 33%
    19:00 +39°C° 0 mm 5 mps 749 mmHg 35%
    20:00 +37°C° 0 mm 5 mps 750 mmHg 38%
    21:00 +35°C° 0 mm 6 mps 751 mmHg 45%
    22:00 +34°C° 0 mm 6 mps 751 mmHg 52%
    23:00 +32°C° 0 mm 7 mps 752 mmHg 58%

    29 March, Friday

    Time Temperature Precipitation Wind Pressure Humidity
    00:00 +30°C° 0 mm 7 mps 752 mmHg 63%
    01:00 +29°C° 0 mm 6 mps 752 mmHg 67%
    02:00 +28°C° 0 mm 6 mps 751 mmHg 71%
    03:00 +28°C° 0 mm 5 mps 751 mmHg 71%
    04:00 +28°C° 0 mm 5 mps 752 mmHg 72%
    05:00 +28°C° 0 mm 4 mps 752 mmHg 73%
    06:00 +29°C° 0 mm 4 mps 752 mmHg 69%
    07:00 +29°C° 0 mm 4 mps 753 mmHg 65%
    08:00 +30°C° 0 mm 4 mps 754 mmHg 61%
    09:00 +33°C° 0 mm 5 mps 753 mmHg 54%
    10:00 +35°C° 0 mm 5 mps 753 mmHg 46%
    11:00 +37°C° 0 mm 5 mps 753 mmHg 39%
    12:00 +38°C° 0 mm 4 mps 752 mmHg 36%
    13:00 +41°C° 0 mm 4 mps 750 mmHg 33%
    14:00 +42°C° 0 mm 4 mps 749 mmHg 30%
    15:00 +41°C° 0 mm 4 mps 749 mmHg 30%
    16:00 +41°C° 0 mm 4 mps 749 mmHg 31%
    17:00 +41°C° 0 mm 4 mps 748 mmHg 31%
    18:00 +40°C° 0 mm 5 mps 749 mmHg 34%
    19:00 +39°C° 0 mm 6 mps 749 mmHg 37%
    20:00 +38°C° 0 mm 6 mps 750 mmHg 41%
    21:00 +35°C° 0 mm 6 mps 751 mmHg 47%
    22:00 +34°C° 0 mm 6 mps 751 mmHg 52%
    23:00 +33°C° 0 mm 7 mps 752 mmHg 58%

    30 March, Saturday

    Time Temperature Precipitation Wind Pressure Humidity
    00:00 +32°C° 0 mm 6 mps 752 mmHg 62%
    01:00 +30°C° 0 mm 6 mps 751 mmHg 66%
    02:00 +29°C° 0 mm 5 mps 751 mmHg 70%
    03:00 +29°C° 0 mm 5 mps 751 mmHg 72%
    04:00 +28°C° 0 mm 5 mps 751 mmHg 73%
    05:00 +28°C° 0 mm 4 mps 752 mmHg 74%
    06:00 +28°C° 0 mm 4 mps 752 mmHg 71%
    07:00 +29°C° 0 mm 4 mps 753 mmHg 67%
    08:00 +30°C° 0 mm 4 mps 754 mmHg 64%
    09:00 +33°C° 0 mm 4 mps 753 mmHg 55%
    10:00 +35°C° 0 mm 4 mps 753 mmHg 46%
    11:00 +37°C° 0 mm 4 mps 753 mmHg 37%
    12:00 +38°C° 0 mm 4 mps 752 mmHg 33%
    13:00 +41°C° 0 mm 4 mps 751 mmHg 29%
    14:00 +42°C° 0 mm 4 mps 749 mmHg 25%
    15:00 +42°C° 0 mm 4 mps 749 mmHg 25%
    16:00 +42°C° 0 mm 4 mps 749 mmHg 26%
    17:00 +41°C° 0 mm 4 mps 748 mmHg 26%
    18:00 +40°C° 0 mm 5 mps 749 mmHg 31%
    19:00 +39°C° 0 mm 6 mps 749 mmHg 35%
    20:00 +38°C° 0 mm 7 mps 750 mmHg 40%
    21:00 +35°C° 0 mm 6 mps 751 mmHg 45%
    22:00 +34°C° 0 mm 6 mps 751 mmHg 51%
    23:00 +32°C° 0 mm 6 mps 752 mmHg 56%
    Show more